Home > Weather > Fairbanks > Past weeks

Flag for U.S.A. Weather for the Past 2 Weeks in Fairbanks, Alaska, U.S.A.

Now
1 °F

Clear.


Feels Like: 1 °F
Forecast: -15 / 6 °F
Wind: No wind

Location: Wainwright U. S. Army Airfield

Current Time: Feb 10, 2016 at 8:27:52 PM

Latest Report: Feb 10, 2016 at 6:58 PM


Visibility: 10 mi

Pressure: 29.71 "Hg

Humidity: 88%

Dew point: -2 °F

Location of FairbanksLocation

Historic Weather in Fairbanks — Graph

°F

Fairbanks Temperature Yesterday

Maximum temperature yesterday: 3 °F (at 3:58 PM)
Minimum temperature yesterday: -14 °F (at 9:58 AM)
Average temperature yesterday: -8 °F

High & Low Weather Summary for the Past Weeks

 TemperatureHumidityPressure
High33 °F (Jan 27, 5:58 PM)100% (Jan 30, 11:03 AM)30.23 "Hg (Jan 30, 11:03 AM)
Low-16 °F (Feb 10, 7:55 AM)59% (Feb 5, 1:58 PM)28.79 "Hg (Jan 28, 3:58 AM)
Average5 °F83%29.67 "Hg
* Reported Jan 26 6:58 PM — Feb 10 5:58 PM, Fairbanks, Weather by CustomWeather, © 2016

Note: Actual official high and low records may vary slightly from our data, if they occured in-between our weather recording intervals... More about our weather records

Advertising

Fairbanks Weather History for the Previous 24 Hours

 ConditionsComfort  
Time TempWeatherWind HumidityBarometerVisibility
5:58 PM
Wed, Feb 10
5 °FClear.No wind84%29.78 "Hg10 mi
4:58 PM7 °FSunny.No wind73%29.80 "Hg10 mi
3:58 PM14 °FSunny.2 mph74%29.79 "Hg10 mi
2:58 PM15 °FSunny.2 mph75%29.82 "Hg10 mi
1:58 PM10 °FScattered clouds.No wind80%29.85 "Hg10 mi
11:58 AM-6 °FScattered clouds.No wind79%29.92 "Hg25 mi
10:58 AM-13 °FPassing clouds.No wind78%29.94 "Hg10 mi
9:58 AM-16 °FPassing clouds.No wind77%29.96 "Hg85 mi
8:58 AM-16 °FClear.No wind77%29.97 "Hg5 mi
8:55 AM-16 °FPassing clouds.2 mph77%29.96 "Hg85 mi
7:55 AM-16 °FClear.2 mph77%29.97 "Hg10 mi
6:55 AM-15 °FClear.No wind76%29.98 "Hg10 mi
5:58 AM-15 °FClear.No wind77%30.01 "Hg10 mi
4:58 AM-16 °FClear.No wind77%30.03 "Hg10 mi
3:58 AM-15 °FClear.No wind77%29.99 "Hg10 mi
2:58 AM-15 °FClear.No wind78%30.02 "Hg10 mi
1:58 AM-13 °FClear.No wind80%30.04 "Hg10 mi
12:58 AM-13 °FClear.No wind79%30.06 "Hg9 mi
11:58 PM
Tue, Feb 9
-13 °FClear.No wind79%30.08 "Hg10 mi
10:58 PM-12 °FClear.No wind79%30.09 "Hg10 mi
9:58 PM-12 °FClear.No wind80%30.17 "Hg10 mi
8:58 PM-9 °FClear.No wind82%30.19 "Hg10 mi
Weather by CustomWeather, © 2016

See weather overviewHow to use our weather pages